Regional Weather Roundup
Issued by NWS Charleston, SC

Current Version | Previous Version | Text Only | Print | Product List | Glossary Off
Versions: 1 2 3 4 5 6 7 8 9 10 11 12 13 14 15 16 17 18 19 20 21 22 23 24 25 26 27 28 29 30 31 32 33 34 35 36 37 38 39 40 41 42 43 44 45 46 47 48 49 50
000 ASUS42 KCHS 221725 RWRCHS REGIONAL WEATHER ROUNDUP NATIONAL WEATHER SERVICE CHARLESTON SC 1200 PM EST MON DEC 22 2014 NOTE: "FAIR" INDICATES FEW OR NO CLOUDS BELOW 12,000 FEET WITH NO SIGNIFICANT WEATHER AND/OR OBSTRUCTIONS TO VISIBILITY. NOT ALL STATIONS ARE QUALITY CONTROLLED BY THE NATIONAL WEATHER SERVICE. USE DATA WITH CAUTION...ESPECIALLY DEWPOINT OBSERVATIONS. SCZ027-030-031-034>040-042>050-221800- ...SOUTHEAST SOUTH CAROLINA... CITY SKY/WX TMP DP RH WIND PRES REMARKS N CHARLESTON LGT RAIN 47 45 93 N8 30.03F FOG WATERFRONT PRK N/A 46 N/A N/A N9 N/A MOUNT PLEASANT LGT RAIN 46 46 100 N5 30.02F PINOPOLIS N/A 46 45 93 NE7 30.00F MONCKS CORNER LGT RAIN 46 45 93 NE5 30.02F SUMMERVILLE CLOUDY 45 45 100 N6 30.03F BEAUFORT MCAS LGT RAIN 49 47 93 NE7 30.00F FOG BEAUFORT ARPT LGT RAIN 46 46 100 NE10 30.00F HILTON HEAD IS LGT RAIN 48 48 100 N7 30.03F VSB 1 WALTERBORO RAIN 46 N/A N/A NE7 30.02F ALLENDALE LGT RAIN 46 46 100 VRB7 30.02F ...SOUTHERN MIDLANDS AND PEE DEE... CITY SKY/WX TMP DP RH WIND PRES REMARKS GEORGETOWN NOT AVBL KINGSTREE NOT AVBL ORANGEBURG LGT RAIN 44 42 93 NE8 30.03F BARNWELL CLOUDY 46 45 93 E6 30.04F AIKEN CLOUDY 45 45 100 NE8 30.07F FOG MANNING CLOUDY 45 N/A N/A NE3 30.04F COLUMBIA CLOUDY 45 43 93 NE7 30.05F FOG SUMTER NOT AVBL FLORENCE CLOUDY 44 41 89 NE7 30.07F MYRTLE BEACH CLOUDY 46 43 87 N9 30.06F FOG N MYRTLE BEACH CLOUDY 46 44 93 N7 30.04F $$ GAZ063-065-086>088-099>101-113>116-118-119-134>141-150-221800- ...SOUTHEAST GEORGIA... CITY SKY/WX TMP DP RH WIND PRES REMARKS SAVANNAH ARPT RAIN 50 48 93 E8 30.01F VSB 1 HUNTER AAF NOT AVBL FORT STEWART NOT AVBL STATESBORO RAIN 46 46 100 SE5 30.01F SYLVANIA HVY RAIN 46 46 100 E5 30.02F CLAXTON TSTM 48 48 100 NW5 30.02F ...CSRA...CENTRAL AND FAR SOUTHEAST GEORGIA... CITY SKY/WX TMP DP RH WIND PRES REMARKS THOMSON CLOUDY 47 47 100 NE5 30.08S AUGUSTA-BUSH HVY RAIN 46 44 93 NE7 30.05F FOG AUGUSTA-DANIEL LGT RAIN 47 45 93 NE8 30.03F FOG SWAINSBORO RAIN N/A N/A N/A E3 30.01F VIDALIA LGT RAIN 48 48 100 N6 30.00F EASTMAN CLOUDY 50 50 100 NE7 30.00F HAZLEHURST RAIN 51 51 100 N3 29.97F ALMA FOG 50 50 100 N7 30.01F VSB 3/4 WAYCROSS FOG 56 56 100 N5 29.98F VSB 1/4 JESUP HVY RAIN 54 54 100 CALM 29.99F VSB 1/2 BAXLEY DRIZZLE 52 50 93 NE6 30.00F BRUNSWICK CLOUDY 54 52 94 NE6 29.99F VSB 1/4 SAINT SIMONS FOG 55 54 96 NE8 29.99F VSB 1/2 $$ SCZ027-028-034-036>038-045-046-048>050-GAZ119-141-221800- ...LAKE AND SUPPLEMENTAL COASTAL OBSERVATIONS... STATION/POSITION TIME TEMP WIND PRES WAVE SWELL AIR SEA DIR/SP/G HT/PER HT/PER/DIR (UTC) (F) (DEG/KT/KT) (MB) (FT/S) (FT/S/D) UPR LAKE MARION NOT AVBL WINYAH BAY 1700 45 340/ 4 1017.0S LAKE MURRAY 1700 44 40/ 4/ 8 1017.6F ACE BASIN NERRS 1700 47 30/ 2 1017.0S FORT PULASKI 1700 51 55 50/ 8/ 9 1016.5F SAPELO ISLAND 1600 53 30/ 11 1016.0F $$ ANZ835-935-AMZ111-154-330-350-352-354-370-450-454-472-221800- ...C-MAN AND BUOY OBSERVATIONS... STATION/POSITION TIME TEMP WIND PRES WAVE SWELL AIR SEA DIR/SP/G HT/PER HT/PER/DIR (UTC) (F) (DEG/KT/KT) (MB) (FT/S) (FT/S/D) BUOY 41004 1700 60 73 20/ 14/ 17 1016.1F 5/10 3/10 BUOY 41008 1700 56 59 30/ 14/ 17 1015.5F 3/ 9 2/ 50/ 9 FOLLY BEACH CMAN 1700 47 10/ 8/ 9 1017.1F CAPERS NEARSHORE 1600 47 20/ 12/ 12 N/A FRIPP NEARSHORE NOT AVBL STATION/POSITION TIME TEMP WIND PRES WAVE SWELL AIR SEA DIR/SP/G HT/PER HT/PER/DIR (UTC) (F) (DEG/KT/KT) (MB) (FT/S) (FT/S/D) 5E ST. MARYS GA 1700 61 N/A 3/ 9 FRYING PAN BUOY 1700 54 69 360/ 14/ 16 1017.0F 5/ 8 3/ 90/ 8 BUOY 41025 1700 69 1014.5F 10/ 8 CAPE LOOKOUT NC 1700 52 340/ 10/ 11 1015.3F BUOY 41002 1631 71 72 210/ 8/ 10 1017.8F 4/ 6 3/170/ 6 BUOY 41010 1700 74 77 140/ 8/ 10 1017.0F 3/ 9 3/ 30/ 9 ST AUGUSTINE FL 1700 65 170/ 10/ 11 1015.7F $$

USA.gov is the U.S. government's official web portal to all federal, state and local government web resources and services.